Back to catalog

FENGYUN 1C DEB

AliveSSO
NORAD 46448·DEBRIS·🇨🇳 China

Launched May 10, 1999 from Taiyuan Satellite Launch Center

Loading…

Next Passes (next 24 hours)

TLE

StaleSource: Space-Track

Epoch: Aug 31, 2026, 00:16 UTC

1 46448U 99025EZD 26243.01133771  .00002620  00000-0  11322-2 0  9992
2 46448  99.0703 316.3169 0065553  74.3297 286.5101 14.24154720656832

Track FENGYUN 1C DEB in real time with AllMySat

Download on the App Store